Moline, IL
on Wednesday, February 13, 2013

Wednesday
Previous Day Next Day
Daily Summary
 ActualAverageRecord
Temperature
Mean Temperature °F 26°F  
Max Temperature 44°F 35°F 64°F (1938)
Min Temperature 25°F 18°F -25°F (1905)
Degree Days
Heating Degree Days 30 39  
Month to date heating degree days 476 526  
Since 1 July heating degree days 4048 4260  
Cooling Degree Days 0 0  
Month to date cooling degree days 0 0  
Year to date cooling degree days 0 0  
Moisture
Dew Point 27°F   
Average Humidity 69    
Maximum Humidity 85    
Minimum Humidity 53    
Precipitation
Precipitation 0.00 in 0.05 in 0.99 in (1906)
Month to date precipitation 1.15 0.62  
Year to date precipitation 4.01 2.11  
Snow
Snow 0.00 in 0.30 in in ()
Month to date snowfall 1.1 3.6  
Since 1 July snowfall 10.7 23.5  
Snow Depth 0.00 in   
Wind
Wind Speed 7 mph   
Max Wind Speed 14 mph   
Max Gust Speed 21 mph   
Visibility 10 miles   
Events     

Key: T is trace of precipitation, MM is missing value
Source: NWS Daily Summary
Time(CST)TemperatureDew PointHumidity Pressure Visibility Wind DirectionWind SpeedGust SpeedPrecipitationEvents Conditions
12:52 AM 30.9°F 25.0°F 79% 29.89 in 10.0 miles WSW 6.9 mph - N/A   Clear
1:52 AM 28.0°F 23.0°F 81% 29.88 in 10.0 miles WSW 3.5 mph - N/A   Clear
2:52 AM 28.0°F 24.1°F 85% 29.85 in 10.0 miles WSW 3.5 mph - N/A   Clear
3:52 AM 28.0°F 23.0°F 81% 29.83 in 10.0 miles WSW 4.6 mph - N/A   Clear
4:52 AM 27.0°F 23.0°F 85% 29.82 in 10.0 miles Calm Calm - N/A   Clear
5:52 AM 27.0°F 23.0°F 85% 29.81 in 9.0 miles WSW 3.5 mph - N/A   Clear
6:52 AM 26.1°F 21.9°F 84% 29.81 in 9.0 miles SW 4.6 mph - N/A   Clear
7:52 AM 28.0°F 24.1°F 85% 29.81 in 6.0 miles SW 3.5 mph - N/A   Clear
8:52 AM 32.0°F 27.0°F 82% 29.82 in 7.0 miles West 8.1 mph - N/A   Clear
9:52 AM 35.1°F 28.0°F 76% 29.81 in 8.0 miles WNW 6.9 mph - N/A   Clear
10:52 AM 39.0°F 28.9°F 67% 29.80 in - WNW 8.1 mph - N/A   Clear
11:52 AM 41.0°F 28.0°F 60% 29.80 in 10.0 miles West 11.5 mph - N/A   Clear
12:52 PM 44.1°F 30.0°F 58% 29.77 in 10.0 miles WSW 13.8 mph - N/A   Clear
1:52 PM 43.0°F 28.9°F 58% 29.76 in 10.0 miles WNW 12.7 mph - N/A   Clear
2:52 PM 44.1°F 28.9°F 55% 29.76 in 10.0 miles West 10.4 mph - N/A   Clear
3:52 PM 44.1°F 28.9°F 55% 29.77 in 10.0 miles West 12.7 mph - N/A   Clear
4:52 PM 43.0°F 28.9°F 58% 29.77 in 10.0 miles West 6.9 mph - N/A   Clear
5:52 PM 39.9°F 28.9°F 65% 29.78 in 10.0 miles SW 4.6 mph - N/A   Overcast
6:52 PM 39.0°F 30.0°F 70% 29.78 in 10.0 miles SW 4.6 mph - N/A   Overcast
7:52 PM 36.0°F 28.9°F 76% 29.77 in 10.0 miles South 5.8 mph - N/A   Scattered Clouds
8:52 PM 37.0°F 28.9°F 73% 29.75 in 10.0 miles Calm Calm - N/A   Partly Cloudy
9:52 PM 39.0°F 28.9°F 67% 29.73 in 10.0 miles SSW 8.1 mph - N/A   Mostly Cloudy
10:52 PM 39.9°F 28.9°F 65% 29.72 in 10.0 miles SSW 9.2 mph - N/A   Clear
11:52 PM 39.9°F 30.0°F 68% 29.70 in 10.0 miles SSW 11.5 mph - N/A   Overcast
Astronomy
Sunrise:06:59 AM (CST) Moon Rise:08:25 AM (CST)2/13
Sunset:05:33 PM (CST) Moon Set:09:40 PM (CST)2/13
Moon Phase
Feb. 13 Feb. 17 Feb. 25 Mar. 04 Mar. 11

Copyright © 2015 The Weather Underground, Inc.















  Today is Monday, Nov. 17, the 321st day of 2014. There are 44 days left in the year.

1864 -- 150 years ago: The ferry landing has been moved a little downstream because of the increase of sandbars above and opposite the old landing place.
1889 -- 125 years ago: Ben Eden purchased the Union Meat Market at 207 20th St.
1914 -- 100 years ago: Washington dispatches declared the bad effects of war upon trade had ended, a restoration of credit balance with Europe relieving the situation.
1939 -- 75 years ago: The maintenance foreman on the Iowa Illinois Memorial Bridge between Moline and Bettendorf lost his life when he slipped and fell into the Mississippi River.
1964 -- 50 years ago: The Black Hawk College Board of Education last night formally expressed appreciation for a proposed gift of 44 acres of land for a building site but could not take any other action until after a Nov. 24 stockholders meeting of the donor company.
1989 -- 25 years ago: A Rock Island County committee has approved a jail inmate phone service that could bring the county an additional $30,000 to $40,000 a year.